TimeEDT,TemperatureF,Dew PointF,Humidity,Sea Level PressureIn,VisibilityMPH,Wind Direction,Wind SpeedMPH,Gust SpeedMPH,PrecipitationIn,Events,Conditions,WindDirDegrees,DateUTC
12:15 AM,35.6,17.6,48,29.98,10.0,WSW,4.6,-,N/A,,Overcast,240,2013-03-23 04:15:00
12:35 AM,35.6,17.6,48,29.98,10.0,WSW,5.8,-,N/A,,Overcast,240,2013-03-23 04:35:00
12:55 AM,35.6,19.4,52,29.98,10.0,WSW,5.8,-,N/A,,Overcast,240,2013-03-23 04:55:00
1:15 AM,35.6,17.6,48,29.97,10.0,Calm,Calm,-,N/A,,Overcast,0,2013-03-23 05:15:00
1:35 AM,35.6,17.6,48,29.97,10.0,Calm,Calm,-,N/A,,Overcast,0,2013-03-23 05:35:00
1:55 AM,35.6,17.6,48,29.97,10.0,WSW,3.5,-,N/A,,Overcast,250,2013-03-23 05:55:00
2:15 AM,35.6,19.4,52,29.97,10.0,WSW,3.5,-,N/A,,Overcast,250,2013-03-23 06:15:00
2:35 AM,33.8,19.4,56,29.97,10.0,West,3.5,-,N/A,,Overcast,260,2013-03-23 06:35:00
2:55 AM,35.6,19.4,52,29.97,10.0,WSW,3.5,-,N/A,,Overcast,240,2013-03-23 06:55:00
3:15 AM,33.8,19.4,56,29.96,10.0,Calm,Calm,-,N/A,,Overcast,0,2013-03-23 07:15:00
3:35 AM,33.8,21.2,60,29.95,10.0,Calm,Calm,-,N/A,,Overcast,0,2013-03-23 07:35:00
4:15 AM,35.6,21.2,56,29.95,10.0,Calm,Calm,-,N/A,,Overcast,0,2013-03-23 08:15:00
4:35 AM,35.6,19.4,52,29.94,10.0,Calm,Calm,-,N/A,,Overcast,0,2013-03-23 08:35:00
4:55 AM,35.6,21.2,56,29.93,10.0,Calm,Calm,-,N/A,,Overcast,0,2013-03-23 08:55:00
5:15 AM,35.6,21.2,56,29.94,10.0,Calm,Calm,-,N/A,,Overcast,0,2013-03-23 09:15:00
5:35 AM,35.6,23.0,60,29.95,10.0,Calm,Calm,-,N/A,,Overcast,0,2013-03-23 09:35:00
5:55 AM,35.6,23.0,60,29.94,10.0,Calm,Calm,-,N/A,,Overcast,0,2013-03-23 09:55:00
6:15 AM,35.6,26.6,70,29.94,10.0,Calm,Calm,-,N/A,,Overcast,0,2013-03-23 10:15:00
6:35 AM,33.8,23.0,65,29.95,10.0,Calm,Calm,-,N/A,,Overcast,0,2013-03-23 10:35:00
6:55 AM,35.6,23.0,60,29.95,10.0,Calm,Calm,-,N/A,,Overcast,0,2013-03-23 10:55:00
7:15 AM,35.6,24.8,65,29.95,10.0,Calm,Calm,-,N/A,,Overcast,0,2013-03-23 11:15:00
7:35 AM,35.6,26.6,70,29.96,10.0,Calm,Calm,-,N/A,,Overcast,0,2013-03-23 11:35:00
7:55 AM,35.6,26.6,70,29.96,10.0,Calm,Calm,-,N/A,,Overcast,0,2013-03-23 11:55:00
8:15 AM,35.6,26.6,70,29.97,10.0,Calm,Calm,-,N/A,,Overcast,0,2013-03-23 12:15:00
8:35 AM,35.6,24.8,65,29.98,10.0,Calm,Calm,-,N/A,,Overcast,0,2013-03-23 12:35:00
9:15 AM,37.4,26.6,65,29.98,10.0,Calm,Calm,-,N/A,,Overcast,0,2013-03-23 13:15:00
9:35 AM,37.4,24.8,60,29.98,10.0,Calm,Calm,-,N/A,,Overcast,0,2013-03-23 13:35:00
9:55 AM,37.4,23.0,56,29.98,10.0,Calm,Calm,-,N/A,,Overcast,0,2013-03-23 13:55:00
10:15 AM,39.2,24.8,56,29.98,10.0,Calm,Calm,-,N/A,,Overcast,0,2013-03-23 14:15:00
10:35 AM,39.2,24.8,56,29.98,10.0,Calm,Calm,-,N/A,,Overcast,0,2013-03-23 14:35:00
10:55 AM,41.0,24.8,53,29.98,10.0,Calm,Calm,-,N/A,,Overcast,0,2013-03-23 14:55:00
11:15 AM,41.0,24.8,53,29.98,10.0,Calm,Calm,-,N/A,,Overcast,0,2013-03-23 15:15:00
11:35 AM,41.0,26.6,57,29.98,10.0,Calm,Calm,-,N/A,,Overcast,0,2013-03-23 15:35:00
11:55 AM,41.0,26.6,57,29.98,10.0,Calm,Calm,-,N/A,,Overcast,0,2013-03-23 15:55:00
12:15 PM,41.0,24.8,53,29.98,10.0,East,3.5,-,N/A,,Overcast,90,2013-03-23 16:15:00
12:35 PM,41.0,26.6,57,29.98,10.0,Calm,Calm,-,N/A,,Overcast,0,2013-03-23 16:35:00
12:55 PM,42.8,28.4,57,29.98,10.0,Calm,Calm,-,N/A,,Overcast,0,2013-03-23 16:55:00
1:15 PM,42.8,28.4,57,29.97,10.0,East,3.5,-,N/A,,Overcast,80,2013-03-23 17:15:00
1:35 PM,42.8,28.4,57,29.97,10.0,Calm,Calm,-,N/A,,Overcast,0,2013-03-23 17:35:00
1:55 PM,42.8,30.2,61,29.97,10.0,Calm,Calm,-,N/A,,Overcast,0,2013-03-23 17:55:00
2:15 PM,42.8,30.2,61,29.97,10.0,Calm,Calm,-,N/A,,Overcast,0,2013-03-23 18:15:00
2:35 PM,42.8,32.0,66,29.97,10.0,Calm,Calm,-,N/A,,Overcast,0,2013-03-23 18:35:00
2:55 PM,44.6,32.0,61,29.96,10.0,Calm,Calm,-,N/A,,Overcast,0,2013-03-23 18:55:00
3:15 PM,44.6,32.0,61,29.95,10.0,Calm,Calm,-,N/A,,Overcast,0,2013-03-23 19:15:00
3:35 PM,44.6,32.0,61,29.95,10.0,North,3.5,-,N/A,,Overcast,10,2013-03-23 19:35:00
3:55 PM,44.6,32.0,61,29.95,10.0,Calm,Calm,-,N/A,,Overcast,0,2013-03-23 19:55:00
4:15 PM,46.4,33.8,62,29.94,10.0,North,3.5,-,N/A,,Overcast,360,2013-03-23 20:15:00
4:35 PM,48.2,33.8,58,29.93,10.0,Calm,Calm,-,N/A,,Overcast,0,2013-03-23 20:35:00
4:55 PM,46.4,33.8,62,29.93,10.0,NE,3.5,-,N/A,,Overcast,40,2013-03-23 20:55:00
5:15 PM,46.4,33.8,62,29.93,10.0,Calm,Calm,-,N/A,,Overcast,0,2013-03-23 21:15:00
5:35 PM,46.4,33.8,62,29.92,10.0,Calm,Calm,-,N/A,,Overcast,0,2013-03-23 21:35:00
5:55 PM,46.4,33.8,62,29.91,10.0,Calm,Calm,-,N/A,,Mostly Cloudy,0,2013-03-23 21:55:00
6:15 PM,46.4,33.8,62,29.91,10.0,NE,3.5,-,N/A,,Clear,50,2013-03-23 22:15:00
6:35 PM,46.4,33.8,62,29.92,10.0,Calm,Calm,-,N/A,,Clear,0,2013-03-23 22:35:00
6:55 PM,46.4,33.8,62,29.92,10.0,Calm,Calm,-,N/A,,Clear,0,2013-03-23 22:55:00
7:15 PM,44.6,33.8,66,29.92,10.0,Calm,Calm,-,N/A,,Clear,0,2013-03-23 23:15:00
7:35 PM,44.6,33.8,66,29.91,10.0,Calm,Calm,-,N/A,,Clear,0,2013-03-23 23:35:00
7:55 PM,42.8,33.8,70,29.91,10.0,NE,3.5,-,N/A,,Clear,40,2013-03-23 23:55:00
8:15 PM,42.8,32.0,66,29.91,10.0,Calm,Calm,-,N/A,,Clear,0,2013-03-24 00:15:00
8:35 PM,42.8,32.0,66,29.91,10.0,Calm,Calm,-,N/A,,Clear,0,2013-03-24 00:35:00
8:55 PM,42.8,32.0,66,29.91,10.0,Calm,Calm,-,N/A,,Clear,0,2013-03-24 00:55:00
9:15 PM,42.8,32.0,66,29.91,10.0,Calm,Calm,-,N/A,,Clear,0,2013-03-24 01:15:00
9:35 PM,42.8,32.0,66,29.91,10.0,Calm,Calm,-,N/A,,Clear,0,2013-03-24 01:35:00
9:55 PM,42.8,32.0,66,29.89,10.0,Calm,Calm,-,N/A,,Clear,0,2013-03-24 01:55:00
10:15 PM,41.0,32.0,70,29.88,10.0,Calm,Calm,-,N/A,,Clear,0,2013-03-24 02:15:00
10:35 PM,41.0,32.0,70,29.87,10.0,NE,5.8,-,N/A,,Clear,40,2013-03-24 02:35:00
10:55 PM,41.0,32.0,70,29.86,10.0,Calm,Calm,-,N/A,,Clear,0,2013-03-24 02:55:00
11:15 PM,41.0,32.0,70,29.86,10.0,Calm,Calm,-,N/A,,Clear,0,2013-03-24 03:15:00
11:35 PM,41.0,32.0,70,29.84,10.0,Calm,Calm,-,N/A,,Clear,0,2013-03-24 03:35:00
11:55 PM,41.0,32.0,70,29.83,10.0,Calm,Calm,-,N/A,,Clear,0,2013-03-24 03:55:00